Location: Scenic Heights
(38.0166°N, 120.2566°W)
Time: 14:51:32
(UTC+00:00)

CZ-3C R/B - Pass Details

Date: 03 August 2024
Orbit: 267 x 32386 km, 20.6° (Epoch: 08 September)

Event Time Altitude Azimuth Distance (km) Brightness Sun altitude
Exits shadow 11:07:57 19° 189° (S) 3,060 4.1 -20.3°
Maximum altitude 11:13:53 32° 141° (SE) 4,133 5.1 -19.5°
Drops below altitude 10° 18:46:24 10° 130° (SE) 24,567 9.7 62.7°
Sets 19:19:18 0° 128° (SE) 19,839 9.0 66.7°
